TimeCDT,TemperatureF,Dew PointF,Humidity,Sea Level PressureIn,VisibilityMPH,Wind Direction,Wind SpeedMPH,Gust SpeedMPH,PrecipitationIn,Events,Conditions,WindDirDegrees,DateUTC
12:22 AM,50.0,48.2,94,29.91,0.8,North,11.5,-,N/A,,Mist,360,2013-04-16 05:22:00
12:33 AM,50.0,48.2,94,29.93,1.5,North,10.4,-,N/A,,Overcast,350,2013-04-16 05:33:00
12:37 AM,50.0,48.2,94,29.93,3.0,North,11.5,-,N/A,,Overcast,350,2013-04-16 05:37:00
12:53 AM,48.9,48.9,100,29.92,9.0,North,18.4,-,N/A,,Overcast,10,2013-04-16 05:53:00
1:20 AM,48.2,48.2,100,29.95,10.0,North,16.1,24.2,N/A,,Overcast,10,2013-04-16 06:20:00
1:53 AM,46.0,45.0,96,29.93,10.0,NNE,12.7,20.7,N/A,,Overcast,30,2013-04-16 06:53:00
2:04 AM,46.4,44.6,93,29.92,10.0,NNE,15.0,20.7,N/A,Thunderstorm,Overcast,20,2013-04-16 07:04:00
2:37 AM,46.4,44.6,93,29.94,10.0,ENE,13.8,-,0.08,Thunderstorm,Overcast,60,2013-04-16 07:37:00
2:42 AM,46.4,44.6,93,29.94,10.0,ENE,16.1,-,0.08,Thunderstorm,Overcast,70,2013-04-16 07:42:00
2:53 AM,46.9,45.0,93,30.00,10.0,NNW,9.2,21.9,0.08,Rain-Thunderstorm,Light Thunderstorms and Rain,340,2013-04-16 07:53:00
3:07 AM,46.4,44.6,93,29.93,1.2,ENE,16.1,-,0.30,Rain-Thunderstorm,Heavy Thunderstorms and Rain,70,2013-04-16 08:07:00
3:14 AM,46.4,44.6,93,29.94,2.0,East,15.0,-,0.40,Rain-Thunderstorm,Heavy Thunderstorms and Rain,80,2013-04-16 08:14:00
3:24 AM,46.4,44.6,93,29.93,4.0,East,13.8,20.7,0.44,Rain-Thunderstorm,Thunderstorms and Rain,90,2013-04-16 08:24:00
3:37 AM,46.4,44.6,93,29.98,10.0,NE,9.2,20.7,0.45,Rain-Thunderstorm,Light Rain,40,2013-04-16 08:37:00
3:53 AM,46.0,45.0,96,29.95,6.0,NNE,10.4,-,0.46,Rain-Thunderstorm,Rain,30,2013-04-16 08:53:00
4:33 AM,44.6,44.6,100,29.98,7.0,North,10.4,-,0.16,Rain,Rain,10,2013-04-16 09:33:00
4:53 AM,46.0,44.1,93,29.98,10.0,NNE,13.8,-,0.16,,Overcast,20,2013-04-16 09:53:00
5:53 AM,45.0,44.1,97,29.99,8.0,NE,10.4,-,N/A,,Overcast,40,2013-04-16 10:53:00
6:43 AM,44.6,42.8,93,30.02,10.0,NE,13.8,-,N/A,,Overcast,40,2013-04-16 11:43:00
6:53 AM,44.6,42.8,93,30.02,7.0,NE,12.7,-,N/A,,Overcast,50,2013-04-16 11:53:00
7:11 AM,44.6,42.8,93,30.03,2.0,NE,10.4,-,N/A,,Overcast,40,2013-04-16 12:11:00
7:21 AM,44.6,42.8,93,30.03,1.8,NNE,13.8,-,N/A,,Overcast,30,2013-04-16 12:21:00
7:28 AM,44.6,42.8,93,30.04,2.0,NE,12.7,-,N/A,,Overcast,40,2013-04-16 12:28:00
7:41 AM,44.6,42.8,93,30.04,3.0,NE,11.5,-,N/A,,Overcast,50,2013-04-16 12:41:00
7:53 AM,44.1,43.0,96,30.04,3.0,NE,11.5,-,N/A,,Overcast,40,2013-04-16 12:53:00
8:25 AM,44.6,42.8,93,30.04,2.5,NE,13.8,-,N/A,,Overcast,50,2013-04-16 13:25:00
8:49 AM,44.6,42.8,93,30.05,3.0,NE,15.0,-,N/A,,Overcast,40,2013-04-16 13:49:00
8:53 AM,44.1,43.0,96,30.06,3.0,NNE,11.5,-,N/A,,Overcast,30,2013-04-16 13:53:00
9:28 AM,44.6,42.8,93,30.07,3.0,NNE,10.4,-,N/A,Thunderstorm,Overcast,20,2013-04-16 14:28:00
9:42 AM,42.8,42.8,100,30.07,2.0,North,12.7,-,0.00,Rain-Thunderstorm,Light Rain,350,2013-04-16 14:42:00
9:53 AM,42.1,41.0,96,30.06,2.0,NNE,12.7,-,0.00,Rain-Thunderstorm,Light Rain,30,2013-04-16 14:53:00
10:11 AM,42.8,42.8,100,30.08,2.0,North,10.4,-,0.00,,Overcast,10,2013-04-16 15:11:00
10:20 AM,42.8,41.0,93,30.07,1.8,NNE,11.5,-,0.00,,Overcast,20,2013-04-16 15:20:00
10:53 AM,43.0,42.1,97,30.08,2.5,NNE,11.5,-,0.00,,Overcast,30,2013-04-16 15:53:00
11:05 AM,42.8,41.0,93,30.08,4.0,ENE,12.7,-,N/A,,Overcast,60,2013-04-16 16:05:00
11:53 AM,43.0,41.0,93,30.09,4.0,NE,13.8,-,N/A,,Overcast,50,2013-04-16 16:53:00
12:19 PM,42.8,41.0,93,30.10,4.0,NE,10.4,-,N/A,Thunderstorm,Overcast,40,2013-04-16 17:19:00
12:35 PM,42.8,41.0,93,30.08,2.0,NNE,9.2,20.7,0.08,Rain-Thunderstorm,Heavy Thunderstorms and Rain,30,2013-04-16 17:35:00
12:45 PM,42.8,42.8,100,30.08,1.8,NE,12.7,-,0.15,Rain-Thunderstorm,Heavy Thunderstorms and Rain,50,2013-04-16 17:45:00
12:53 PM,44.1,42.1,93,30.09,3.0,NE,8.1,-,0.15,Rain,Light Rain,50,2013-04-16 17:53:00
1:20 PM,44.6,42.8,93,30.07,10.0,ENE,8.1,-,0.00,,Overcast,60,2013-04-16 18:20:00
1:38 PM,44.6,42.8,93,30.08,10.0,NE,8.1,-,0.00,,Overcast,40,2013-04-16 18:38:00
1:53 PM,44.1,42.1,93,30.09,8.0,NE,11.5,-,0.00,,Overcast,40,2013-04-16 18:53:00
2:17 PM,44.6,42.8,93,30.07,2.5,ENE,9.2,-,0.00,Rain,Light Rain,60,2013-04-16 19:17:00
2:25 PM,44.6,42.8,93,30.07,5.0,NE,6.9,-,0.00,,Overcast,40,2013-04-16 19:25:00
2:53 PM,45.0,43.0,93,30.08,6.0,NE,9.2,-,0.00,,Overcast,40,2013-04-16 19:53:00
3:12 PM,44.6,42.8,93,30.06,4.0,NE,10.4,-,N/A,,Overcast,50,2013-04-16 20:12:00
3:28 PM,44.6,42.8,93,30.06,2.0,NE,11.5,-,N/A,,Overcast,50,2013-04-16 20:28:00
3:43 PM,44.6,42.8,93,30.06,1.5,NE,13.8,-,N/A,,Overcast,50,2013-04-16 20:43:00
3:53 PM,45.0,44.1,97,30.07,1.5,NE,9.2,-,N/A,,Overcast,50,2013-04-16 20:53:00
4:51 PM,44.6,44.6,100,30.06,2.0,NE,13.8,-,N/A,,Overcast,50,2013-04-16 21:51:00
4:53 PM,45.0,44.1,97,30.07,2.0,NE,11.5,-,N/A,,Overcast,50,2013-04-16 21:53:00
5:02 PM,44.6,44.6,100,30.06,1.5,NE,11.5,-,N/A,,Overcast,50,2013-04-16 22:02:00
5:53 PM,45.0,44.1,97,30.07,1.0,NE,10.4,-,N/A,,Overcast,50,2013-04-16 22:53:00
6:04 PM,44.6,44.6,100,30.07,0.8,NE,11.5,-,N/A,,Overcast,50,2013-04-16 23:04:00
6:11 PM,44.6,44.6,100,30.07,1.0,NE,10.4,-,N/A,,Overcast,50,2013-04-16 23:11:00
6:17 PM,44.6,44.6,100,30.07,0.5,NE,13.8,-,N/A,Fog,Fog,50,2013-04-16 23:17:00
6:39 PM,44.6,44.6,100,30.07,0.8,ENE,10.4,-,N/A,,Overcast,60,2013-04-16 23:39:00
6:53 PM,44.1,43.0,96,30.08,1.0,NE,10.4,-,N/A,,Overcast,40,2013-04-16 23:53:00
7:01 PM,44.6,42.8,93,30.07,0.8,NE,13.8,-,N/A,,Overcast,50,2013-04-17 00:01:00
7:12 PM,44.6,42.8,93,30.07,1.0,NE,12.7,-,N/A,,Overcast,50,2013-04-17 00:12:00
7:18 PM,44.6,42.8,93,30.07,0.5,ENE,12.7,-,N/A,Fog,Fog,60,2013-04-17 00:18:00
7:53 PM,44.1,43.0,96,30.09,0.8,ENE,11.5,-,N/A,,Mist,60,2013-04-17 00:53:00
8:26 PM,44.6,42.8,93,30.08,0.5,NE,12.7,-,N/A,Fog,Fog,50,2013-04-17 01:26:00
8:40 PM,44.6,42.8,93,30.08,0.8,ENE,13.8,19.6,N/A,,Mist,60,2013-04-17 01:40:00
8:53 PM,44.1,43.0,96,30.10,0.8,ENE,11.5,-,N/A,,Mist,70,2013-04-17 01:53:00
9:44 PM,44.6,44.6,100,30.09,0.5,ENE,10.4,-,N/A,Fog,Fog,70,2013-04-17 02:44:00
9:53 PM,45.0,44.1,97,30.11,0.5,ENE,10.4,-,N/A,Fog,Fog,60,2013-04-17 02:53:00
10:53 PM,45.0,45.0,100,30.09,0.2,ENE,9.2,-,N/A,Fog,Fog,70,2013-04-17 03:53:00
11:53 PM,45.0,45.0,100,30.08,0.2,ENE,10.4,-,N/A,Fog,Fog,70,2013-04-17 04:53:00